TimePST,TemperatureF,Dew PointF,Humidity,Sea Level PressureIn,VisibilityMPH,Wind Direction,Wind SpeedMPH,Gust SpeedMPH,PrecipitationIn,Events,Conditions,WindDirDegrees,DateUTC
12:53 AM,30.0,27.0,88,30.54,7.0,NNE,3.5,-,N/A,,Clear,20,2013-01-17 08:53:00
1:53 AM,30.0,27.0,88,30.54,6.0,NNW,3.5,-,N/A,,Clear,340,2013-01-17 09:53:00
2:49 AM,32.0,28.4,87,30.50,4.0,NE,3.5,-,N/A,,Scattered Clouds,50,2013-01-17 10:49:00
2:53 AM,32.0,28.9,88,30.53,4.0,Calm,Calm,-,N/A,,Mostly Cloudy,0,2013-01-17 10:53:00
2:57 AM,32.0,28.4,87,30.49,2.5,Calm,Calm,-,N/A,,Scattered Clouds,0,2013-01-17 10:57:00
3:00 AM,30.2,28.4,93,30.49,1.2,Calm,Calm,-,N/A,,Scattered Clouds,0,2013-01-17 11:00:00
3:53 AM,28.0,25.0,88,30.51,0.8,Calm,Calm,-,N/A,,Scattered Clouds,0,2013-01-17 11:53:00
4:19 AM,26.6,24.8,93,30.46,0.2,Calm,Calm,-,N/A,Fog,Light Freezing Fog,0,2013-01-17 12:19:00
4:27 AM,26.6,24.8,93,30.46,0.2,Calm,Calm,-,N/A,Fog,Light Freezing Fog,0,2013-01-17 12:27:00
4:38 AM,26.6,24.8,93,30.46,0.2,Calm,Calm,-,N/A,Fog,Light Freezing Fog,0,2013-01-17 12:38:00
4:49 AM,26.6,24.8,93,30.46,0.2,ENE,3.5,-,N/A,Fog,Light Freezing Fog,60,2013-01-17 12:49:00
4:53 AM,27.0,25.0,92,30.49,0.2,ENE,3.5,-,N/A,Fog,Light Freezing Fog,60,2013-01-17 12:53:00
5:09 AM,28.4,26.6,93,30.45,1.2,Calm,Calm,-,N/A,,Scattered Clouds,0,2013-01-17 13:09:00
5:12 AM,28.4,26.6,93,30.45,2.0,Calm,Calm,-,N/A,,Scattered Clouds,0,2013-01-17 13:12:00
5:26 AM,28.4,24.8,86,30.45,1.2,North,5.8,-,N/A,,Scattered Clouds,10,2013-01-17 13:26:00
5:37 AM,28.4,24.8,86,30.45,1.0,NNE,5.8,-,N/A,,Scattered Clouds,20,2013-01-17 13:37:00
5:39 AM,26.6,24.8,93,30.45,0.2,NNE,6.9,-,N/A,Fog,Light Freezing Fog,30,2013-01-17 13:39:00
5:43 AM,26.6,24.8,93,30.45,0.2,ENE,5.8,-,N/A,Fog,Light Freezing Fog,60,2013-01-17 13:43:00
5:53 AM,28.9,26.1,89,30.48,0.2,ENE,5.8,-,N/A,Fog,Light Freezing Fog,60,2013-01-17 13:53:00
6:41 AM,28.4,24.8,86,30.44,0.1,NE,4.6,-,N/A,Fog,Light Freezing Fog,40,2013-01-17 14:41:00
6:53 AM,28.0,26.1,92,30.47,0.1,NE,4.6,-,N/A,Fog,Light Freezing Fog,50,2013-01-17 14:53:00
7:39 AM,28.4,26.6,93,30.44,0.2,NE,3.5,-,N/A,Fog,Light Freezing Fog,40,2013-01-17 15:39:00
7:53 AM,28.0,25.0,88,30.47,0.2,NE,3.5,-,N/A,Fog,Light Freezing Fog,50,2013-01-17 15:53:00
8:53 AM,30.0,27.0,88,30.48,0.2,NE,5.8,-,N/A,Fog,Light Freezing Fog,50,2013-01-17 16:53:00
9:46 AM,32.0,30.2,93,30.45,0.1,NE,3.5,-,N/A,Fog,Fog,40,2013-01-17 17:46:00
9:53 AM,32.0,28.9,88,30.48,0.1,Calm,Calm,-,N/A,Fog,Fog,0,2013-01-17 17:53:00
10:53 AM,33.1,30.9,92,30.48,0.1,NNE,3.5,-,N/A,Fog,Fog,20,2013-01-17 18:53:00
11:32 AM,35.6,33.8,93,30.42,0.1,Calm,Calm,-,N/A,Fog,Fog,0,2013-01-17 19:32:00
11:39 AM,35.6,32.0,87,30.42,0.1,Calm,Calm,-,N/A,Fog,Fog,0,2013-01-17 19:39:00
11:49 AM,33.8,32.0,93,30.42,0.1,NNW,3.5,-,N/A,Fog,Fog,340,2013-01-17 19:49:00
11:53 AM,35.1,32.0,89,30.45,0.1,NNW,3.5,-,N/A,,Overcast,340,2013-01-17 19:53:00
12:11 PM,35.6,33.8,93,30.40,0.1,NNE,3.5,-,N/A,,Overcast,30,2013-01-17 20:11:00
12:53 PM,37.0,33.1,86,30.42,0.5,Calm,Calm,-,N/A,,Mostly Cloudy,0,2013-01-17 20:53:00
1:53 PM,37.0,33.1,86,30.40,0.5,NNW,5.8,-,N/A,,Overcast,330,2013-01-17 21:53:00
2:37 PM,37.4,33.8,87,30.35,0.2,North,3.5,-,N/A,Fog,Fog,360,2013-01-17 22:37:00
2:44 PM,37.4,33.8,87,30.35,0.2,NNE,5.8,-,N/A,Fog,Fog,20,2013-01-17 22:44:00
2:53 PM,36.0,33.1,89,30.38,0.2,North,3.5,-,N/A,Fog,Fog,10,2013-01-17 22:53:00
3:53 PM,35.1,33.1,92,30.36,0.2,Calm,Calm,-,N/A,Fog,Fog,0,2013-01-17 23:53:00
3:58 PM,35.6,33.8,93,30.33,0.1,Calm,Calm,-,N/A,Fog,Fog,0,2013-01-17 23:58:00
4:53 PM,35.1,32.0,89,30.37,0.1,Calm,Calm,-,N/A,Fog,Fog,0,2013-01-18 00:53:00
5:53 PM,33.1,32.0,96,30.37,0.1,Calm,Calm,-,N/A,Fog,Fog,0,2013-01-18 01:53:00
6:53 PM,32.0,30.9,96,30.35,0.1,Calm,Calm,-,N/A,Fog,Fog,0,2013-01-18 02:53:00
7:53 PM,32.0,30.0,92,30.35,0.1,South,4.6,-,N/A,Fog,Fog,190,2013-01-18 03:53:00
8:53 PM,34.0,32.0,92,30.35,0.1,Calm,Calm,-,N/A,Fog,Fog,0,2013-01-18 04:53:00
9:53 PM,35.1,33.1,92,30.34,0.1,Calm,Calm,-,N/A,Fog,Fog,0,2013-01-18 05:53:00
10:53 PM,35.1,33.1,92,30.33,0.1,Calm,Calm,-,N/A,Fog,Fog,0,2013-01-18 06:53:00
11:53 PM,34.0,32.0,92,30.32,0.1,SSE,3.5,-,N/A,Fog,Fog,150,2013-01-18 07:53:00